Shelby, NC

11:41 PM EST on February 18, 2018 (GMT -0500)
Shelby Municipal

Weather History for KEHO - May, 2013

Change the Weather History Date:

Sunday, May 12, 2013

  Actual Average (KHKY) Record (KHKY)
Temperature  
Mean Temperature 60 °F -  
Max Temperature 70 °F 78 °F 89 °F (1953)
Min Temperature 51 °F 54 °F 38 °F (1952)
Degree Days  
Heating Degree Days 4    
Growing Degree Days 10 (Base 50)    
Moisture  
Dew Point 42 °F    
Average Humidity 54    
Maximum Humidity 95    
Minimum Humidity 14    
Precipitation  
Precipitation 0.00 in - - ()
Sea Level Pressure  
Sea Level Pressure 29.95 in    
Wind  
Wind Speed 6 mph (NW)    
Max Wind Speed 18 mph    
Max Gust Speed 24 mph    
Visibility 10 miles    
Events      
Averages and records for this station are not official NWS values.
T = Trace of Precipitation, MM = Missing Value Source: NWS Daily Summary

Daily Weather History Graph

Daily Weather History Graph

Search for Another Location

Airport or City:

Trip Planner

Search our weather history database for the weather conditions in past years. The results will help you decide how hot, cold, wet, or windy it might be!

Date:

Astronomy

May. 12, 2013 Rise Set
Actual Time 6:24 AM EDT 8:21 PM EDT
Civil Twilight 5:56 AM EDT 8:49 PM EDT
Nautical Twilight 5:22 AM EDT 9:23 PM EDT
Astronomical Twilight 4:46 AM EDT 10:00 PM EDT
Moon 8:19 AM EDT (5/12) 10:46 PM EDT (5/12)
Length of Visible Light 14h 53m
Length of Day
13h 57m
Waxing Crescent, 6% of the Moon is Illuminated
May 12
Waxing Crescent
May 18
First Quarter
May 25
Full
May 31
Last Quarter
Jun 8
New

Hourly Weather History & Observations

Time (EDT) Temp. Dew Point Humidity Pressure Visibility Wind Dir Wind Speed Gust Speed Precip Events Conditions
12:15 AM 62.6 °F 59.7 °F 90% 29.88 in 10.0 mi Calm Calm - N/A   Scattered Clouds
12:35 AM 61.9 °F 59.4 °F 91% 29.88 in 10.0 mi NW 4.6 mph - N/A   Clear
12:55 AM 61.9 °F 59.9 °F 93% 29.88 in 10.0 mi Calm Calm - N/A   Clear
1:15 AM 61.9 °F 59.4 °F 91% 29.88 in 10.0 mi West 4.6 mph - N/A   Scattered Clouds
1:35 AM 61.7 °F 59.4 °F 92% 29.88 in 10.0 mi West 3.5 mph - N/A   Scattered Clouds
1:55 AM 60.3 °F 58.5 °F 94% 29.88 in 10.0 mi Calm Calm - N/A   Scattered Clouds
2:15 AM 60.1 °F 58.6 °F 95% 29.87 in 10.0 mi WNW 4.6 mph - N/A   Clear
2:35 AM 60.1 °F 58.6 °F 95% 29.87 in 10.0 mi WNW 4.6 mph - N/A   Scattered Clouds
2:55 AM 60.1 °F 58.6 °F 95% 29.87 in 10.0 mi Calm Calm - N/A   Scattered Clouds
3:15 AM 60.1 °F 58.1 °F 93% 29.87 in 10.0 mi West 3.5 mph - N/A   Scattered Clouds
3:35 AM 58.6 °F 57.2 °F 95% 29.87 in 10.0 mi NW 5.8 mph - N/A   Mostly Cloudy
3:55 AM 59.0 °F 57.6 °F 95% 29.87 in 10.0 mi NNW 6.9 mph - N/A   Scattered Clouds
4:15 AM 59.0 °F 55.4 °F 88% 29.88 in 10.0 mi WNW 6.9 mph - N/A   Scattered Clouds
4:35 AM 58.3 °F 51.1 °F 77% 29.89 in 10.0 mi NW 6.9 mph - N/A   Overcast
4:55 AM 56.5 °F 48.6 °F 75% 29.89 in 10.0 mi NNW 5.8 mph - N/A   Scattered Clouds
5:35 AM 53.8 °F 48.2 °F 81% 29.90 in 10.0 mi Calm Calm - N/A   Clear
5:55 AM 53.1 °F 48.0 °F 83% 29.91 in 10.0 mi WNW 5.8 mph - N/A   Clear
6:15 AM 52.5 °F 47.1 °F 82% 29.91 in 10.0 mi NW 4.6 mph - N/A   Clear
6:35 AM 53.1 °F 47.1 °F 80% 29.92 in 10.0 mi Calm Calm - N/A   Clear
6:55 AM 51.3 °F 47.5 °F 87% 29.93 in 10.0 mi West 3.5 mph - N/A   Clear
7:15 AM 51.8 °F 47.7 °F 86% 29.94 in 10.0 mi West 3.5 mph - N/A   Clear
7:35 AM 53.6 °F 48.2 °F 82% 29.94 in 10.0 mi West 5.8 mph - N/A   Clear
7:55 AM 54.9 °F 49.3 °F 81% 29.95 in 10.0 mi WNW 4.6 mph - N/A   Clear
8:15 AM 57.0 °F 49.3 °F 75% 29.95 in 10.0 mi WNW 3.5 mph - N/A   Clear
8:35 AM 59.0 °F 49.5 °F 71% 29.95 in 10.0 mi Calm Calm - N/A   Clear
8:55 AM 60.1 °F 49.3 °F 67% 29.96 in 10.0 mi WSW 4.6 mph - N/A   Clear
9:15 AM 61.5 °F 48.6 °F 62% 29.96 in 10.0 mi WSW 4.6 mph - N/A   Clear
9:35 AM 61.9 °F 47.8 °F 60% 29.96 in 10.0 mi West 4.6 mph - N/A   Clear
9:55 AM 62.8 °F 47.5 °F 57% 29.96 in 10.0 mi WSW 5.8 mph - N/A   Clear
10:15 AM 63.5 °F 48.6 °F 58% 29.96 in 10.0 mi WNW 8.1 mph - N/A   Clear
10:35 AM 65.1 °F 48.2 °F 54% 29.96 in 10.0 mi West 6.9 mph - N/A   Clear
10:55 AM 65.3 °F 45.3 °F 48% 29.95 in 10.0 mi NW 11.5 mph 18.4 mph N/A   Clear
11:15 AM 65.3 °F 43.7 °F 46% 29.95 in 10.0 mi West 11.5 mph - N/A   Clear
11:35 AM 65.8 °F 43.5 °F 44% 29.96 in 10.0 mi WSW 10.4 mph - N/A   Clear
11:55 AM 66.2 °F 41.9 °F 41% 29.96 in 10.0 mi WSW 10.4 mph 18.4 mph N/A   Clear
12:15 PM 66.9 °F 41.0 °F 39% 29.97 in 10.0 mi West 9.2 mph 17.3 mph N/A   Clear
12:35 PM 67.1 °F 40.1 °F 37% 29.97 in 10.0 mi West 11.5 mph 21.9 mph N/A   Clear
12:55 PM 68.0 °F 39.9 °F 36% 29.97 in 10.0 mi WNW 16.1 mph 19.6 mph N/A   Clear
1:15 PM 68.0 °F 34.9 °F 29% 29.96 in 10.0 mi WNW 16.1 mph 20.7 mph N/A   Clear
1:35 PM 68.9 °F 31.6 °F 25% 29.96 in 10.0 mi WNW 16.1 mph 20.7 mph N/A   Clear
1:55 PM 68.9 °F 35.4 °F 29% 29.96 in 10.0 mi West 16.1 mph 20.7 mph N/A   Clear
2:15 PM 70.2 °F 35.8 °F 28% 29.95 in 10.0 mi West 16.1 mph 20.7 mph N/A   Clear
2:35 PM 70.3 °F 35.2 °F 28% 29.95 in 10.0 mi West 13.8 mph 18.4 mph N/A   Clear
2:55 PM 70.2 °F 33.8 °F 26% 29.95 in 10.0 mi WNW 12.7 mph 19.6 mph N/A   Clear
3:15 PM 70.7 °F 30.0 °F 22% 29.94 in 10.0 mi WNW 18.4 mph 24.2 mph N/A   Clear
3:35 PM 70.5 °F 24.6 °F 18% 29.94 in 10.0 mi WNW 11.5 mph 23.0 mph N/A   Clear
3:55 PM 70.3 °F 18.9 °F 14% 29.94 in 10.0 mi West 11.5 mph 23.0 mph N/A   Clear
4:15 PM 70.7 °F 23.5 °F 17% 29.94 in 10.0 mi West 12.7 mph 18.4 mph N/A   Clear
4:35 PM 70.9 °F 28.2 °F 20% 29.93 in 10.0 mi WNW 8.1 mph 17.3 mph N/A   Clear
4:55 PM 70.7 °F 29.3 °F 21% 29.93 in 10.0 mi WNW 9.2 mph 17.3 mph N/A   Clear
5:15 PM 70.7 °F 31.3 °F 23% 29.93 in 10.0 mi WNW 10.4 mph 16.1 mph N/A   Clear
5:35 PM 70.0 °F 36.3 °F 29% 29.94 in 10.0 mi NNW 8.1 mph 16.1 mph N/A   Clear
5:55 PM 69.8 °F 36.5 °F 29% 29.95 in 10.0 mi NNW 11.5 mph 17.3 mph N/A   Clear
6:15 PM 68.9 °F 35.4 °F 29% 29.95 in 10.0 mi North 13.8 mph 17.3 mph N/A   Clear
6:35 PM 67.6 °F 35.1 °F 30% 29.96 in 10.0 mi North 10.4 mph 16.1 mph N/A   Clear
6:55 PM 67.1 °F 34.7 °F 30% 29.97 in 10.0 mi NNW 10.4 mph - N/A   Clear
7:15 PM 65.7 °F 35.2 °F 32% 29.98 in 10.0 mi North 9.2 mph - N/A   Clear
7:35 PM 64.4 °F 32.9 °F 31% 29.98 in 10.0 mi North 10.4 mph - N/A   Clear
7:55 PM 62.8 °F 33.1 °F 33% 29.99 in 10.0 mi North 5.8 mph - N/A   Clear
8:15 PM 61.9 °F 32.4 °F 33% 30.01 in 10.0 mi North 8.1 mph - N/A   Clear
8:35 PM 60.1 °F 32.0 °F 35% 30.01 in 10.0 mi North 6.9 mph - N/A   Clear
8:55 PM 59.2 °F 32.2 °F 36% 30.02 in 10.0 mi North 5.8 mph - N/A   Clear
9:15 PM 58.1 °F 32.7 °F 38% 30.02 in 10.0 mi North 5.8 mph - N/A   Clear
9:35 PM 57.6 °F 32.4 °F 39% 30.03 in 10.0 mi North 5.8 mph - N/A   Clear
9:55 PM 57.2 °F 32.4 °F 39% 30.04 in 10.0 mi NNW 6.9 mph - N/A   Clear
10:15 PM 54.7 °F 34.7 °F 47% 30.05 in 10.0 mi NNW 5.8 mph - N/A   Clear
10:35 PM 54.7 °F 34.2 °F 46% 30.05 in 10.0 mi NNW 4.6 mph - N/A   Clear
10:55 PM 54.5 °F 34.2 °F 46% 30.05 in 10.0 mi North 3.5 mph - N/A   Clear
11:15 PM 53.6 °F 33.3 °F 46% 30.06 in 10.0 mi NNE 3.5 mph - N/A   Clear
11:35 PM 52.9 °F 34.5 °F 50% 30.06 in 10.0 mi North 3.5 mph - N/A   Clear
11:55 PM 52.7 °F 33.6 °F 48% 30.07 in 10.0 mi North 3.5 mph - N/A   Clear